User: anonymous   Login
Location: Gipe Farm
(40.9466°N, 95.5370°W)
Time: 13:47:04
(UTC-06:00)
Language:

Cosmos 2082 Rocket - Orbit

View from above orbital plane
View from above orbital plane
View from above satellite
View from above satellite

Ground track
Ground track

The orbit data is extracted from the following two-line orbital elements,

1 20625U 90046B   17348.87571603 +.00000071 +00000-0 +61839-4 0  9993
2 20625 070.9977 129.9084 0015086 200.7465 159.3047 14.14620466423139
Epoch (UTC): 14 December 2017 21:01:01
Eccentricity: 0.0015086
inclination: 70.9977°
perigee height: 833 km
apogee height: 854 km
right ascension of ascending node: 129.9084°
argument of perigee: 200.7465°
revolutions per day: 14.14620466
mean anomaly at epoch: 159.3047°
orbit number at epoch: 42313

The dashed part of the orbit path shows where the satellite is in the earth's shadow,  

DLR